Starlink 5332

operational
NORAD ID: 55285 Int'l Des: 2023-010 Owner: SPXS Country: US Constellation: starlink
LEOCIRCULAR

Starlink 5332について

説明を読み込み中...

リアルタイム位置

3D地球を読み込み中...

次回通過

高度履歴

Altitude vs Time

uPlot chart will show altitude changes over time

軌道要素

1 55285U 23010S 25303.50586663 -.00002008 00000-0 -16048-3 0 9997
2 55285 69.9992 332.6187 0003698 268.7301 91.3434 14.98336568155147
Epoch: Oct 30, 2025 • Age: 18 hours

現在のステータス

高度 586.0 km
速度 7.57 km/s
衛星直下点 69.73°N, 60.37°W
打ち上げ日 Jan 19, 2023
運用期間 2.7 years
タイプ internet

技術仕様

分類 Payload
質量 305.00 kg
乾燥質量 290.00 kg
総質量 305.00 kg
長さ 0.20 m
直径 2.80 m
スパン 9.00 m
形状 Box + pan
製造者 SPXS
バスタイプ Starlink
フェーズステータス In Orbit
所有者/国 SPXS/US

大規模コンステレーション

Loading constellations...